Year,Month,Day,Hour,Minute,Value (Times are PST for temperature in C)
2021,06,22,00,00,20.10
2021,06,22,00,01,20.10
2021,06,22,00,02,20.20
2021,06,22,00,03,20.20
2021,06,22,00,04,20.20
2021,06,22,00,05,20.20
2021,06,22,00,06,20.30
2021,06,22,00,07,20.30
2021,06,22,00,08,20.30
2021,06,22,00,09,20.30
2021,06,22,00,10,20.30
2021,06,22,00,11,20.30
2021,06,22,00,12,20.30
2021,06,22,00,13,20.30
2021,06,22,00,14,20.30
2021,06,22,00,15,20.30
2021,06,22,00,16,20.40
2021,06,22,00,17,20.40
2021,06,22,00,18,20.50
2021,06,22,00,19,20.50
2021,06,22,00,20,20.60
2021,06,22,00,21,20.60
2021,06,22,00,22,20.60
2021,06,22,00,23,20.70
2021,06,22,00,24,20.70
2021,06,22,00,25,20.80
2021,06,22,00,26,20.90
2021,06,22,00,27,20.90
2021,06,22,00,28,21.00
2021,06,22,00,29,21.00
2021,06,22,00,30,21.10
2021,06,22,00,31,21.10
2021,06,22,00,32,21.10
2021,06,22,00,33,21.10
2021,06,22,00,34,21.10
2021,06,22,00,35,21.10
2021,06,22,00,36,21.00
2021,06,22,00,37,21.00
2021,06,22,00,38,21.00
2021,06,22,00,39,21.10
2021,06,22,00,40,21.00
2021,06,22,00,41,21.10
2021,06,22,00,42,21.10
2021,06,22,00,43,21.10
2021,06,22,00,44,21.10
2021,06,22,00,45,21.10
2021,06,22,00,46,21.10
2021,06,22,00,47,21.20
2021,06,22,00,48,21.20
2021,06,22,00,49,21.20
2021,06,22,00,50,21.20
2021,06,22,00,51,21.30
2021,06,22,00,52,21.30
2021,06,22,00,53,21.40
2021,06,22,00,54,21.40
2021,06,22,00,55,21.50
2021,06,22,00,56,21.50
2021,06,22,00,57,21.60
2021,06,22,00,58,21.60
2021,06,22,00,59,21.60
2021,06,22,01,00,21.70
2021,06,22,01,01,21.70
2021,06,22,01,02,21.70
2021,06,22,01,03,21.70
2021,06,22,01,04,21.70
2021,06,22,01,05,21.80
2021,06,22,01,06,21.80
2021,06,22,01,07,21.80
2021,06,22,01,08,21.80
2021,06,22,01,09,21.80
2021,06,22,01,10,21.90
2021,06,22,01,11,21.90
2021,06,22,01,12,21.90
2021,06,22,01,13,21.90
2021,06,22,01,14,21.90
2021,06,22,01,15,21.90
2021,06,22,01,16,21.90
2021,06,22,01,17,21.90
2021,06,22,01,18,21.90
2021,06,22,01,19,21.90
2021,06,22,01,20,21.90
2021,06,22,01,21,21.90
2021,06,22,01,22,21.90
2021,06,22,01,23,21.90
2021,06,22,01,24,21.80
2021,06,22,01,25,21.80
2021,06,22,01,26,21.80
2021,06,22,01,27,21.80
2021,06,22,01,28,21.80
2021,06,22,01,29,21.80
2021,06,22,01,30,21.80
2021,06,22,01,31,21.80
2021,06,22,01,32,21.80
2021,06,22,01,33,21.80
2021,06,22,01,34,21.80
2021,06,22,01,35,21.80
2021,06,22,01,36,21.70
2021,06,22,01,37,21.70
2021,06,22,01,38,21.70
2021,06,22,01,39,21.70
2021,06,22,01,40,21.60
2021,06,22,01,41,21.60
2021,06,22,01,42,21.60
2021,06,22,01,43,21.60
2021,06,22,01,44,21.50
2021,06,22,01,45,21.50
2021,06,22,01,46,21.40
2021,06,22,01,47,21.40
2021,06,22,01,48,21.30
2021,06,22,01,49,21.30
2021,06,22,01,50,21.30
2021,06,22,01,51,21.20
2021,06,22,01,52,21.10
2021,06,22,01,53,21.00
2021,06,22,01,54,20.90
2021,06,22,01,55,20.80
2021,06,22,01,56,20.70
2021,06,22,01,57,20.60
2021,06,22,01,58,20.60
2021,06,22,01,59,20.50
2021,06,22,02,00,20.40
2021,06,22,02,01,20.30
2021,06,22,02,02,20.30
2021,06,22,02,03,20.20
2021,06,22,02,04,20.10
2021,06,22,02,05,20.10
2021,06,22,02,06,20.00
2021,06,22,02,07,19.90
2021,06,22,02,08,19.90
2021,06,22,02,09,19.90
2021,06,22,02,10,19.80
2021,06,22,02,11,19.80
2021,06,22,02,12,19.80
2021,06,22,02,13,19.70
2021,06,22,02,14,19.70
2021,06,22,02,15,19.70
2021,06,22,02,16,19.70
2021,06,22,02,17,19.60
2021,06,22,02,18,19.60
2021,06,22,02,19,19.60
2021,06,22,02,20,19.50
2021,06,22,02,21,19.50
2021,06,22,02,22,19.50
2021,06,22,02,23,19.50
2021,06,22,02,24,19.40
2021,06,22,02,25,19.40
2021,06,22,02,26,19.40
2021,06,22,02,27,19.40
2021,06,22,02,28,19.40
2021,06,22,02,29,19.40
2021,06,22,02,30,19.40
2021,06,22,02,31,19.40
2021,06,22,02,32,19.30
2021,06,22,02,33,19.30
2021,06,22,02,34,19.30
2021,06,22,02,35,19.30
2021,06,22,02,36,19.30
2021,06,22,02,37,19.20
2021,06,22,02,38,19.20
2021,06,22,02,39,19.10
2021,06,22,02,40,19.10
2021,06,22,02,41,19.00
2021,06,22,02,42,19.00
2021,06,22,02,43,18.90
2021,06,22,02,44,18.90
2021,06,22,02,45,18.80
2021,06,22,02,46,18.80
2021,06,22,02,47,18.70
2021,06,22,02,48,18.70
2021,06,22,02,49,18.60
2021,06,22,02,50,18.50
2021,06,22,02,51,18.50
2021,06,22,02,52,18.40
2021,06,22,02,53,18.40
2021,06,22,02,54,18.30
2021,06,22,02,55,18.30
2021,06,22,02,56,18.20
2021,06,22,02,57,18.20
2021,06,22,02,58,18.10
2021,06,22,02,59,18.10
2021,06,22,03,00,18.10
2021,06,22,03,01,18.00
2021,06,22,03,02,18.00
2021,06,22,03,03,18.00
2021,06,22,03,04,17.90
2021,06,22,03,05,17.90
2021,06,22,03,06,17.90
2021,06,22,03,07,17.80
2021,06,22,03,08,17.80
2021,06,22,03,09,17.80
2021,06,22,03,10,17.80
2021,06,22,03,11,17.80
2021,06,22,03,12,17.80
2021,06,22,03,13,17.80
2021,06,22,03,14,17.70
2021,06,22,03,15,17.70
2021,06,22,03,16,17.70
2021,06,22,03,17,17.70
2021,06,22,03,18,17.70
2021,06,22,03,19,17.60
2021,06,22,03,20,17.60
2021,06,22,03,21,17.60
2021,06,22,03,22,17.60
2021,06,22,03,23,17.60
2021,06,22,03,24,17.60
2021,06,22,03,25,17.60
2021,06,22,03,26,17.60
2021,06,22,03,27,17.60
2021,06,22,03,28,17.70
2021,06,22,03,29,17.70
2021,06,22,03,30,17.70
2021,06,22,03,31,17.70
2021,06,22,03,32,17.70
2021,06,22,03,33,17.80
2021,06,22,03,34,17.80
2021,06,22,03,35,17.80
2021,06,22,03,36,17.80
2021,06,22,03,37,17.80
2021,06,22,03,38,17.90
2021,06,22,03,39,17.90
2021,06,22,03,40,17.90
2021,06,22,03,41,17.90
2021,06,22,03,42,17.90
2021,06,22,03,43,18.00
2021,06,22,03,44,18.00
2021,06,22,03,45,18.00
2021,06,22,03,46,18.00
2021,06,22,03,47,18.10
2021,06,22,03,48,18.10
2021,06,22,03,49,18.10
2021,06,22,03,50,18.10
2021,06,22,03,51,18.20
2021,06,22,03,52,18.20
2021,06,22,03,53,18.20
2021,06,22,03,54,18.20
2021,06,22,03,55,18.20
2021,06,22,03,56,18.20
2021,06,22,03,57,18.20
2021,06,22,03,58,18.20
2021,06,22,03,59,18.20
2021,06,22,04,00,18.20
2021,06,22,04,01,18.20
2021,06,22,04,02,18.20
2021,06,22,04,03,18.20
2021,06,22,04,04,18.10
2021,06,22,04,05,18.10
2021,06,22,04,06,18.10
2021,06,22,04,07,18.10
2021,06,22,04,08,18.10
2021,06,22,04,09,18.00
2021,06,22,04,10,18.00
2021,06,22,04,11,17.90
2021,06,22,04,12,17.90
2021,06,22,04,13,17.90
2021,06,22,04,14,17.90
2021,06,22,04,15,17.90
2021,06,22,04,16,17.90
2021,06,22,04,17,17.90
2021,06,22,04,18,17.90
2021,06,22,04,19,17.90
2021,06,22,04,20,17.90
2021,06,22,04,21,17.90
2021,06,22,04,22,17.90
2021,06,22,04,23,17.90
2021,06,22,04,24,17.90
2021,06,22,04,25,17.90
2021,06,22,04,26,17.90
2021,06,22,04,27,17.90
2021,06,22,04,28,17.90
2021,06,22,04,29,18.00
2021,06,22,04,30,18.00
2021,06,22,04,31,18.00
2021,06,22,04,32,18.00
2021,06,22,04,33,18.00
2021,06,22,04,34,18.00
2021,06,22,04,35,18.10
2021,06,22,04,36,18.10
2021,06,22,04,37,18.10
2021,06,22,04,38,18.10
2021,06,22,04,39,18.10
2021,06,22,04,40,18.10
2021,06,22,04,41,18.10
2021,06,22,04,42,18.10
2021,06,22,04,43,18.10
2021,06,22,04,44,18.10
2021,06,22,04,45,18.10
2021,06,22,04,46,18.10
2021,06,22,04,47,18.10
2021,06,22,04,48,18.10
2021,06,22,04,49,18.10
2021,06,22,04,50,18.10
2021,06,22,04,51,18.00
2021,06,22,04,52,18.00
2021,06,22,04,53,17.90
2021,06,22,04,54,17.90
2021,06,22,04,55,17.80
2021,06,22,04,56,17.80
2021,06,22,04,57,17.80
2021,06,22,04,58,17.70
2021,06,22,04,59,17.70
2021,06,22,05,00,17.60
2021,06,22,05,01,17.60
2021,06,22,05,02,17.50
2021,06,22,05,03,17.40
2021,06,22,05,04,17.40
2021,06,22,05,05,17.40
2021,06,22,05,06,17.30
2021,06,22,05,07,17.30
2021,06,22,05,08,17.30
2021,06,22,05,09,17.20
2021,06,22,05,10,17.20
2021,06,22,05,11,17.20
2021,06,22,05,12,17.20
2021,06,22,05,13,17.10
2021,06,22,05,14,17.10
2021,06,22,05,15,17.10
2021,06,22,05,16,17.10
2021,06,22,05,17,17.00
2021,06,22,05,18,17.00
2021,06,22,05,19,17.00
2021,06,22,05,20,17.00
2021,06,22,05,21,16.90
2021,06,22,05,22,16.90
2021,06,22,05,23,16.90
2021,06,22,05,24,16.90
2021,06,22,05,25,16.90
2021,06,22,05,26,16.90
2021,06,22,05,27,16.90
2021,06,22,05,28,16.80
2021,06,22,05,29,16.80
2021,06,22,05,30,16.90
2021,06,22,05,31,16.80
2021,06,22,05,32,16.80
2021,06,22,05,33,16.80
2021,06,22,05,34,16.80
2021,06,22,05,35,16.80
2021,06,22,05,36,16.80
2021,06,22,05,37,16.80
2021,06,22,05,38,16.80
2021,06,22,05,39,16.80
2021,06,22,05,40,16.80
2021,06,22,05,41,16.80
2021,06,22,05,42,16.80
2021,06,22,05,43,16.80
2021,06,22,05,44,16.80
2021,06,22,05,45,16.80
2021,06,22,05,46,16.80
2021,06,22,05,47,16.80
2021,06,22,05,48,16.80
2021,06,22,05,49,16.80
2021,06,22,05,50,16.80
2021,06,22,05,51,16.80
2021,06,22,05,52,16.90
2021,06,22,05,53,16.90
2021,06,22,05,54,16.90
2021,06,22,05,55,16.90
2021,06,22,05,56,16.90
2021,06,22,05,57,16.90
2021,06,22,05,58,16.90
2021,06,22,05,59,16.90
2021,06,22,06,00,16.80
2021,06,22,06,01,16.80
2021,06,22,06,02,16.80
2021,06,22,06,03,16.80
2021,06,22,06,04,16.80
2021,06,22,06,05,16.70
2021,06,22,06,06,16.70
2021,06,22,06,07,16.70
2021,06,22,06,08,16.60
2021,06,22,06,09,16.60
2021,06,22,06,10,16.60
2021,06,22,06,11,16.60
2021,06,22,06,12,16.60
2021,06,22,06,13,16.50
2021,06,22,06,14,16.50
2021,06,22,06,15,16.50
2021,06,22,06,16,16.50
2021,06,22,06,17,16.40
2021,06,22,06,18,16.40
2021,06,22,06,19,16.40
2021,06,22,06,20,16.40
2021,06,22,06,21,16.30
2021,06,22,06,22,16.30
2021,06,22,06,23,16.30
2021,06,22,06,24,16.30
2021,06,22,06,25,16.30
2021,06,22,06,26,16.20
2021,06,22,06,27,16.20
2021,06,22,06,28,16.20
2021,06,22,06,29,16.20
2021,06,22,06,30,16.20
2021,06,22,06,31,16.20
2021,06,22,06,32,16.20
2021,06,22,06,33,16.20
2021,06,22,06,34,16.10
2021,06,22,06,35,16.10
2021,06,22,06,36,16.10
2021,06,22,06,37,16.10
2021,06,22,06,38,16.10
2021,06,22,06,39,16.10
2021,06,22,06,40,16.10
2021,06,22,06,41,16.10
2021,06,22,06,42,16.10
2021,06,22,06,43,16.10
2021,06,22,06,44,16.10
2021,06,22,06,45,16.10
2021,06,22,06,46,16.10
2021,06,22,06,47,16.10
2021,06,22,06,48,16.10
2021,06,22,06,49,16.10
2021,06,22,06,50,16.10
2021,06,22,06,51,16.10
2021,06,22,06,52,16.10
2021,06,22,06,53,16.10
2021,06,22,06,54,16.10
2021,06,22,06,55,16.10
2021,06,22,06,56,16.10
2021,06,22,06,57,16.10
2021,06,22,06,58,16.10
2021,06,22,06,59,16.10
2021,06,22,07,00,16.10
2021,06,22,07,01,16.10
2021,06,22,07,02,16.10
2021,06,22,07,03,16.10
2021,06,22,07,04,16.10
2021,06,22,07,05,16.10
2021,06,22,07,06,16.10
2021,06,22,07,07,16.10
2021,06,22,07,08,16.10
2021,06,22,07,09,16.10
2021,06,22,07,10,16.10
2021,06,22,07,11,16.10
2021,06,22,07,12,16.10
2021,06,22,07,13,16.10
2021,06,22,07,14,16.10
2021,06,22,07,15,16.10
2021,06,22,07,16,16.10
2021,06,22,07,17,16.10
2021,06,22,07,18,16.20
2021,06,22,07,19,16.20
2021,06,22,07,20,16.20
2021,06,22,07,21,16.20
2021,06,22,07,22,16.20
2021,06,22,07,23,16.20
2021,06,22,07,24,16.20
2021,06,22,07,25,16.20
2021,06,22,07,26,16.20
2021,06,22,07,27,16.20
2021,06,22,07,28,16.20
2021,06,22,07,29,16.20
2021,06,22,07,30,16.30
2021,06,22,07,31,16.30
2021,06,22,07,32,16.30
2021,06,22,07,33,16.30
2021,06,22,07,34,16.30
2021,06,22,07,35,16.30
2021,06,22,07,36,16.30
2021,06,22,07,37,16.30
2021,06,22,07,38,16.30
2021,06,22,07,39,16.30
2021,06,22,07,40,16.30
2021,06,22,07,41,16.30
2021,06,22,07,42,16.30
2021,06,22,07,43,16.30
2021,06,22,07,44,16.20
2021,06,22,07,45,16.20
2021,06,22,07,46,16.20
2021,06,22,07,47,16.20
2021,06,22,07,48,16.30
2021,06,22,07,49,16.30
2021,06,22,07,50,16.30
2021,06,22,07,51,16.30
2021,06,22,07,52,16.20
2021,06,22,07,53,16.30
2021,06,22,07,54,16.20
2021,06,22,07,55,16.20
2021,06,22,07,56,16.20
2021,06,22,07,57,16.20
2021,06,22,07,58,16.20
2021,06,22,07,59,16.30
2021,06,22,08,00,16.30
2021,06,22,08,01,16.30
2021,06,22,08,02,16.30
2021,06,22,08,03,16.30
2021,06,22,08,04,16.30
2021,06,22,08,05,16.30
2021,06,22,08,06,16.40
2021,06,22,08,07,16.40
2021,06,22,08,08,16.40
2021,06,22,08,09,16.40
2021,06,22,08,10,16.40
2021,06,22,08,11,16.50
2021,06,22,08,12,16.50
2021,06,22,08,13,16.50
2021,06,22,08,14,16.60
2021,06,22,08,15,16.60
2021,06,22,08,16,16.60
2021,06,22,08,17,16.60
2021,06,22,08,18,16.70
2021,06,22,08,19,16.70
2021,06,22,08,20,16.70
2021,06,22,08,21,16.70
2021,06,22,08,22,16.80
2021,06,22,08,23,16.80
2021,06,22,08,24,16.80
2021,06,22,08,25,16.90
2021,06,22,08,26,16.90
2021,06,22,08,27,16.90
2021,06,22,08,28,16.90
2021,06,22,08,29,17.00
2021,06,22,08,30,17.00
2021,06,22,08,31,17.10
2021,06,22,08,32,17.10
2021,06,22,08,33,17.10
2021,06,22,08,34,17.10
2021,06,22,08,35,17.10
2021,06,22,08,36,17.10
2021,06,22,08,37,17.20
2021,06,22,08,38,17.20
2021,06,22,08,39,17.20
2021,06,22,08,40,17.20
2021,06,22,08,41,17.20
2021,06,22,08,42,17.20
2021,06,22,08,43,17.20
2021,06,22,08,44,17.30
2021,06,22,08,45,17.30
2021,06,22,08,46,17.20
2021,06,22,08,47,17.20
2021,06,22,08,48,17.20
2021,06,22,08,49,17.20
2021,06,22,08,50,17.20
2021,06,22,08,51,17.20
2021,06,22,08,52,17.20
2021,06,22,08,53,17.20
2021,06,22,08,54,17.20
2021,06,22,08,55,17.10
2021,06,22,08,56,17.10
2021,06,22,08,57,17.10
2021,06,22,08,58,17.10
2021,06,22,08,59,17.10
2021,06,22,09,00,17.10
2021,06,22,09,01,17.10
2021,06,22,09,02,17.10
2021,06,22,09,03,17.10
2021,06,22,09,04,17.10
2021,06,22,09,05,17.10
2021,06,22,09,06,17.10
2021,06,22,09,07,17.00
2021,06,22,09,08,17.00
2021,06,22,09,09,17.00
2021,06,22,09,10,17.00
2021,06,22,09,11,17.00
2021,06,22,09,12,17.00
2021,06,22,09,13,17.00
2021,06,22,09,14,16.90
2021,06,22,09,15,16.90
2021,06,22,09,16,16.90
2021,06,22,09,17,16.90
2021,06,22,09,18,16.90
2021,06,22,09,19,16.90
2021,06,22,09,20,16.90
2021,06,22,09,21,16.90
2021,06,22,09,22,16.90
2021,06,22,09,23,16.90
2021,06,22,09,24,16.80
2021,06,22,09,25,16.80
2021,06,22,09,26,16.80
2021,06,22,09,27,16.80
2021,06,22,09,28,16.80
2021,06,22,09,29,16.80
2021,06,22,09,30,16.80
2021,06,22,09,31,16.80
2021,06,22,09,32,16.80
2021,06,22,09,33,16.80
2021,06,22,09,34,16.80
2021,06,22,09,35,16.80
2021,06,22,09,36,16.80
2021,06,22,09,37,16.80
2021,06,22,09,38,16.80
2021,06,22,09,39,16.80
2021,06,22,09,40,16.80
2021,06,22,09,41,16.80
2021,06,22,09,42,16.80
2021,06,22,09,43,16.80
2021,06,22,09,44,16.80
2021,06,22,09,45,16.80
2021,06,22,09,46,16.80
2021,06,22,09,47,16.80
2021,06,22,09,48,16.80
2021,06,22,09,49,16.80
2021,06,22,09,50,16.80
2021,06,22,09,51,16.80
2021,06,22,09,52,16.80
2021,06,22,09,53,16.80
2021,06,22,09,54,16.80
2021,06,22,09,55,16.80
2021,06,22,09,56,16.80
2021,06,22,09,57,16.80
2021,06,22,09,58,16.80
2021,06,22,09,59,16.90
2021,06,22,10,00,16.90
2021,06,22,10,01,16.90
2021,06,22,10,02,16.90
2021,06,22,10,03,16.90
2021,06,22,10,04,16.90
2021,06,22,10,05,17.00
2021,06,22,10,06,17.00
2021,06,22,10,07,17.00
2021,06,22,10,08,17.00
2021,06,22,10,09,17.10
2021,06,22,10,10,17.10
2021,06,22,10,11,17.10
2021,06,22,10,12,17.10
2021,06,22,10,13,17.10
2021,06,22,10,14,17.10
2021,06,22,10,15,17.20
2021,06,22,10,16,17.20
2021,06,22,10,17,17.20
2021,06,22,10,18,17.20
2021,06,22,10,19,17.30
2021,06,22,10,20,17.30
2021,06,22,10,21,17.30
2021,06,22,10,22,17.30
2021,06,22,10,23,17.40
2021,06,22,10,24,17.40
2021,06,22,10,25,17.40
2021,06,22,10,26,17.40
2021,06,22,10,27,17.50
2021,06,22,10,28,17.50
2021,06,22,10,29,17.50
2021,06,22,10,30,17.50
2021,06,22,10,31,17.60
2021,06,22,10,32,17.60
2021,06,22,10,33,17.60
2021,06,22,10,34,17.60
2021,06,22,10,35,17.70
2021,06,22,10,36,17.70
2021,06,22,10,37,17.70
2021,06,22,10,38,17.80
2021,06,22,10,39,17.80
2021,06,22,10,40,17.80
2021,06,22,10,41,17.80
2021,06,22,10,42,17.80
2021,06,22,10,43,17.80
2021,06,22,10,44,17.80
2021,06,22,10,45,17.80
2021,06,22,10,46,17.80
2021,06,22,10,47,17.80
2021,06,22,10,48,17.80
2021,06,22,10,49,17.70
2021,06,22,10,50,17.70
2021,06,22,10,51,17.70
2021,06,22,10,52,17.70
2021,06,22,10,53,17.70
2021,06,22,10,54,17.70
2021,06,22,10,55,17.80
2021,06,22,10,56,17.80
2021,06,22,10,57,17.80
2021,06,22,10,58,17.80
2021,06,22,10,59,17.80
2021,06,22,11,00,17.90
2021,06,22,11,01,18.00
2021,06,22,11,02,18.10
2021,06,22,11,03,18.40
2021,06,22,11,04,18.60
2021,06,22,11,05,18.90
2021,06,22,11,06,19.10
2021,06,22,11,07,19.20
2021,06,22,11,08,19.40
2021,06,22,11,09,19.50
2021,06,22,11,10,19.60
2021,06,22,11,11,19.60
2021,06,22,11,12,19.70
2021,06,22,11,13,19.80
2021,06,22,11,14,19.80
2021,06,22,11,15,19.90
2021,06,22,11,16,19.90
2021,06,22,11,17,19.90
2021,06,22,11,18,19.90
2021,06,22,11,19,20.00
2021,06,22,11,20,20.00
2021,06,22,11,21,20.10
2021,06,22,11,22,20.10
2021,06,22,11,23,20.10
2021,06,22,11,24,20.10
2021,06,22,11,25,20.10
2021,06,22,11,26,20.20
2021,06,22,11,27,20.20
2021,06,22,11,28,20.30
2021,06,22,11,29,20.30
2021,06,22,11,30,20.40
2021,06,22,11,31,20.40
2021,06,22,11,32,20.40
2021,06,22,11,33,20.40
2021,06,22,11,34,20.50
2021,06,22,11,35,20.50
2021,06,22,11,36,20.60
2021,06,22,11,37,20.60
2021,06,22,11,38,20.70
2021,06,22,11,39,20.80
2021,06,22,11,40,20.80
2021,06,22,11,41,20.80
2021,06,22,11,42,20.80
2021,06,22,11,43,20.80
2021,06,22,11,44,20.80
2021,06,22,11,45,20.80
2021,06,22,11,46,20.90
2021,06,22,11,47,20.90
2021,06,22,11,48,20.90
2021,06,22,11,49,21.00
2021,06,22,11,50,21.10
2021,06,22,11,51,21.10
2021,06,22,11,52,21.20
2021,06,22,11,53,21.20
2021,06,22,11,54,21.30
2021,06,22,11,55,21.30
2021,06,22,11,56,21.30
2021,06,22,11,57,21.30
2021,06,22,11,58,21.40
2021,06,22,11,59,21.40
2021,06,22,12,00,21.40
2021,06,22,12,01,21.40
2021,06,22,12,02,21.40
2021,06,22,12,03,21.40
2021,06,22,12,04,21.40
2021,06,22,12,05,21.40
2021,06,22,12,06,21.40
2021,06,22,12,07,21.40
2021,06,22,12,08,21.30
2021,06,22,12,09,21.20
2021,06,22,12,10,21.10
2021,06,22,12,11,21.00
2021,06,22,12,12,20.80
2021,06,22,12,13,20.80
2021,06,22,12,14,20.70
2021,06,22,12,15,20.70
2021,06,22,12,16,20.60
2021,06,22,12,17,20.60
2021,06,22,12,18,20.60
2021,06,22,12,19,20.60
2021,06,22,12,20,20.60
2021,06,22,12,21,20.60
2021,06,22,12,22,20.60
2021,06,22,12,23,20.70
2021,06,22,12,24,20.70
2021,06,22,12,25,20.80
2021,06,22,12,26,20.80
2021,06,22,12,27,20.90
2021,06,22,12,28,20.90
2021,06,22,12,29,20.90
2021,06,22,12,30,21.00
2021,06,22,12,31,21.00
2021,06,22,12,32,21.10
2021,06,22,12,33,21.10
2021,06,22,12,34,21.10
2021,06,22,12,35,21.20
2021,06,22,12,36,21.20
2021,06,22,12,37,21.20
2021,06,22,12,38,21.20
2021,06,22,12,39,21.30
2021,06,22,12,40,21.30
2021,06,22,12,41,21.30
2021,06,22,12,42,21.30
2021,06,22,12,43,21.30
2021,06,22,12,44,21.30
2021,06,22,12,45,21.40
2021,06,22,12,46,21.40
2021,06,22,12,47,21.40
2021,06,22,12,48,21.40
2021,06,22,12,49,21.40
2021,06,22,12,50,21.40
2021,06,22,12,51,21.40
2021,06,22,12,52,21.40
2021,06,22,12,53,21.40
2021,06,22,12,54,21.50
2021,06,22,12,55,21.50
2021,06,22,12,56,21.60
2021,06,22,12,57,21.60
2021,06,22,12,58,21.60
2021,06,22,12,59,21.60
2021,06,22,13,00,21.60
2021,06,22,13,01,21.60
2021,06,22,13,02,21.60
2021,06,22,13,03,21.60
2021,06,22,13,04,21.60
2021,06,22,13,05,21.50
2021,06,22,13,06,21.50
2021,06,22,13,07,21.50
2021,06,22,13,08,21.50
2021,06,22,13,09,21.50
2021,06,22,13,10,21.50
2021,06,22,13,11,21.50
2021,06,22,13,12,21.50
2021,06,22,13,13,21.50
2021,06,22,13,14,21.60
2021,06,22,13,15,21.50
2021,06,22,13,16,21.60
2021,06,22,13,17,21.50
2021,06,22,13,18,21.50
2021,06,22,13,19,21.50
2021,06,22,13,20,21.50
2021,06,22,13,21,21.50
2021,06,22,13,22,21.50
2021,06,22,13,23,21.50
2021,06,22,13,24,21.50
2021,06,22,13,25,21.50
2021,06,22,13,26,21.60
2021,06,22,13,27,21.50
2021,06,22,13,28,21.50
2021,06,22,13,29,21.50
2021,06,22,13,30,21.50
2021,06,22,13,31,21.40
2021,06,22,13,32,21.40
2021,06,22,13,33,21.40
2021,06,22,13,34,21.30
2021,06,22,13,35,21.30
2021,06,22,13,36,21.30
2021,06,22,13,37,21.20
2021,06,22,13,38,21.20
2021,06,22,13,39,21.20
2021,06,22,13,40,21.20
2021,06,22,13,41,21.20
2021,06,22,13,42,21.30
2021,06,22,13,43,21.30
2021,06,22,13,44,21.30
2021,06,22,13,45,21.30
2021,06,22,13,46,21.30
2021,06,22,13,47,21.30
2021,06,22,13,48,21.30
2021,06,22,13,49,21.30
2021,06,22,13,50,21.30
2021,06,22,13,51,21.40
2021,06,22,13,52,21.40
2021,06,22,13,53,21.40
2021,06,22,13,54,21.40
2021,06,22,13,55,21.40
2021,06,22,13,56,21.40
2021,06,22,13,57,21.40
2021,06,22,13,58,21.50
2021,06,22,13,59,21.60
2021,06,22,14,00,21.60
2021,06,22,14,01,21.60
2021,06,22,14,02,21.60
2021,06,22,14,03,21.70
2021,06,22,14,04,21.70
2021,06,22,14,05,21.70
2021,06,22,14,06,21.70
2021,06,22,14,07,21.80
2021,06,22,14,08,21.80
2021,06,22,14,09,21.80
2021,06,22,14,10,21.80
2021,06,22,14,11,21.80
2021,06,22,14,12,21.80
2021,06,22,14,13,21.80
2021,06,22,14,14,21.90
2021,06,22,14,15,21.90
2021,06,22,14,16,21.90
2021,06,22,14,17,21.90
2021,06,22,14,18,22.00
2021,06,22,14,19,22.00
2021,06,22,14,20,22.10
2021,06,22,14,21,22.10
2021,06,22,14,22,22.20
2021,06,22,14,23,22.20
2021,06,22,14,24,22.30
2021,06,22,14,25,22.30
2021,06,22,14,26,22.30
2021,06,22,14,27,22.20
2021,06,22,14,28,22.20
2021,06,22,14,29,22.20
2021,06,22,14,30,22.20
2021,06,22,14,31,22.20
2021,06,22,14,32,22.20
2021,06,22,14,33,22.10
2021,06,22,14,34,22.20
2021,06,22,14,35,22.20
2021,06,22,14,36,22.20
2021,06,22,14,37,22.20
2021,06,22,14,38,22.20
2021,06,22,14,39,22.20
2021,06,22,14,40,22.20
2021,06,22,14,41,22.20
2021,06,22,14,42,22.10
2021,06,22,14,43,22.10
2021,06,22,14,44,22.10
2021,06,22,14,45,22.10
2021,06,22,14,46,22.20
2021,06,22,14,47,22.20
2021,06,22,14,48,22.20
2021,06,22,14,49,22.30
2021,06,22,14,50,22.30
2021,06,22,14,51,22.30
2021,06,22,14,52,22.30
2021,06,22,14,53,22.30
2021,06,22,14,54,22.30
2021,06,22,14,55,22.40
2021,06,22,14,56,22.40
2021,06,22,14,57,22.40
2021,06,22,14,58,22.40
2021,06,22,14,59,22.40
2021,06,22,15,00,22.40
2021,06,22,15,01,22.40
2021,06,22,15,02,22.40
2021,06,22,15,03,22.50
2021,06,22,15,04,22.50
2021,06,22,15,05,22.50
2021,06,22,15,06,22.50
2021,06,22,15,07,22.40
2021,06,22,15,08,22.40
2021,06,22,15,09,22.40
2021,06,22,15,10,22.40
2021,06,22,15,11,22.40
2021,06,22,15,12,22.40
2021,06,22,15,13,22.40
2021,06,22,15,14,22.40
2021,06,22,15,15,22.40
2021,06,22,15,16,22.40
2021,06,22,15,17,22.40
2021,06,22,15,18,22.40
2021,06,22,15,19,22.50
2021,06,22,15,20,22.60
2021,06,22,15,21,22.60
2021,06,22,15,22,22.70
2021,06,22,15,23,22.70
2021,06,22,15,24,22.80
2021,06,22,15,25,22.80
2021,06,22,15,26,22.80
2021,06,22,15,27,22.90
2021,06,22,15,28,22.90
2021,06,22,15,29,23.00
2021,06,22,15,30,23.10
2021,06,22,15,31,23.10
2021,06,22,15,32,23.20
2021,06,22,15,33,23.20
2021,06,22,15,34,23.20
2021,06,22,15,35,23.30
2021,06,22,15,36,23.30
2021,06,22,15,37,23.40
2021,06,22,15,38,23.40
2021,06,22,15,39,23.40
2021,06,22,15,40,23.40
2021,06,22,15,41,23.40
2021,06,22,15,42,23.30
2021,06,22,15,43,23.20
2021,06,22,15,44,23.20
2021,06,22,15,45,23.10
2021,06,22,15,46,23.10
2021,06,22,15,47,23.10
2021,06,22,15,48,23.00
2021,06,22,15,49,23.00
2021,06,22,15,50,23.00
2021,06,22,15,51,23.10
2021,06,22,15,52,23.10
2021,06,22,15,53,23.20
2021,06,22,15,54,23.20
2021,06,22,15,55,23.30
2021,06,22,15,56,23.30
2021,06,22,15,57,23.30
2021,06,22,15,58,23.30
2021,06,22,15,59,23.40
2021,06,22,16,00,23.40
2021,06,22,16,01,23.40
2021,06,22,16,02,23.40
2021,06,22,16,03,23.40
2021,06,22,16,04,23.50
2021,06,22,16,05,23.50
2021,06,22,16,06,23.50
2021,06,22,16,07,23.50
2021,06,22,16,08,23.50
2021,06,22,16,09,23.50
2021,06,22,16,10,23.40
2021,06,22,16,11,23.30
2021,06,22,16,12,23.10
2021,06,22,16,13,22.90
2021,06,22,16,14,22.80
2021,06,22,16,15,22.70
2021,06,22,16,16,22.60
2021,06,22,16,17,22.60
2021,06,22,16,18,22.60
2021,06,22,16,19,22.60
2021,06,22,16,20,22.60
2021,06,22,16,21,22.60
2021,06,22,16,22,22.60
2021,06,22,16,23,22.60
2021,06,22,16,24,22.50
2021,06,22,16,25,22.50
2021,06,22,16,26,22.50
2021,06,22,16,27,22.40
2021,06,22,16,28,22.30
2021,06,22,16,29,22.20
2021,06,22,16,30,22.20
2021,06,22,16,31,22.20
2021,06,22,16,32,22.30
2021,06,22,16,33,22.40
2021,06,22,16,34,22.50
2021,06,22,16,35,22.60
2021,06,22,16,36,22.70
2021,06,22,16,37,22.80
2021,06,22,16,38,22.80
2021,06,22,16,39,22.80
2021,06,22,16,40,22.70
2021,06,22,16,41,22.70
2021,06,22,16,42,22.80
2021,06,22,16,43,22.80
2021,06,22,16,44,22.80
2021,06,22,16,45,22.70
2021,06,22,16,46,22.70
2021,06,22,16,47,22.70
2021,06,22,16,48,22.70
2021,06,22,16,49,22.70
2021,06,22,16,50,22.60
2021,06,22,16,51,22.60
2021,06,22,16,52,22.60
2021,06,22,16,53,22.50
2021,06,22,16,54,22.50
2021,06,22,16,55,22.50
2021,06,22,16,56,22.40
2021,06,22,16,57,22.50
2021,06,22,16,58,22.50
2021,06,22,16,59,22.60
2021,06,22,17,00,22.60
2021,06,22,17,01,22.60
2021,06,22,17,02,22.60
2021,06,22,17,03,22.60
2021,06,22,17,04,22.50
2021,06,22,17,05,22.50
2021,06,22,17,06,22.40
2021,06,22,17,07,22.30
2021,06,22,17,08,22.20
2021,06,22,17,09,22.20
2021,06,22,17,10,22.10
2021,06,22,17,11,22.10
2021,06,22,17,12,22.10
2021,06,22,17,13,22.10
2021,06,22,17,14,22.10
2021,06,22,17,15,22.00
2021,06,22,17,16,22.00
2021,06,22,17,17,22.10
2021,06,22,17,18,22.20
2021,06,22,17,19,22.30